FREGAT DEB, 46260

Orbit data source: Space-Track

FREGAT DEB, 46260 is space debris in LEO originally from a launch on Mon, 18 Jul 2011 UTC launched from the Tyuratam Missile And Space Complex (TTMTR). Debris objects in space refer to the collection of defunct objects orbiting the Earth. Examples of debris include non-operational satellites, rocket bodies, and fragments generated from explosions, collisions, or faulty payload assembly.

Loading next visibility...
Identifier
46260, 2011-037KW
Orbit
LEO
Country
Flag of CISCIS
Related business
Manufacturer
Lavochkin
Mission
Spacecraft
Bus & Motor
Unknown
Mass
Unknown
Launch date (UTC)
2011-07-18 (14 years ago)
Launch vehicle
Unknown
Launch site
Tyuratam Missile And Space Complex (TTMTR)
Object type
Payload
Rocket body
Debris
Shape & HBR
Unknown shape, 0.2 m
Radar Cross Section
Small (<0.1 m²)

Expand to show TLE details & history
Last TLE update: 20 hours ago

TLE from 20 hours ago
0 FREGAT DEB
1 46260U 11037KW  25349.42994629  .00088732  00000-0  11499+0 0  9999
2 46260  51.2094 127.2833 1891705 107.8444 273.6902 10.75489961 32370
Epoch: 2025-12-15T10:19Z
TLE epoch observation values (Epoch: 2025-12-15T10:19:07.359Z)
Latitude
-0.00003°
Longitude
-111.82602°
Altitude
2,493.827 km
Speed
6.626 km/s
True Right ascension
08h 29m 07s
True Declination
0° 00' 00"
Sunlit
Object was in daylight at epoch
Visualization orbit readout
Latitude
Unknown
Longitude
Unknown
Altitude
Unknown
Speed
Unknown
Apparent Right ascension
Unknown
Apparent Declination
Unknown
Sunlit
N/A
Visualization observer readout
Local Sidereal Time
05:08:03
Azimuth
Unknown
Elevation
Unknown
Doppler factor
Unknown
Orbital elements
Apogee altitude
3,932.033 km
Perigee altitude
651.797 km
Semi-major axis
8,670.052 km
Eccentricity
0.18917
Inclination
51.2094°
RAAN
127.2833°
Arg. of periapsis
107.8444°
True anomaly
252.23666°
Mean anomaly
273.6902°
Eccentric anomaly
262.93385°
Mean motion
2.6885 °/min
Orbital period
133.9 mins
BSTAR
0.11499
Loading maneuver chart data...
Computing Atmospheric mass density...
Loading historical data...
Loading historical data...
Loading historical data...
Loading historical data...
Loading historical data...
Loading historical data...
Loading historical data...

Documentation

Showing up to 5 results
|